Location: *
(40.7873°S, 98.7174°E)
Time: 11:22:49
(UTC+00:00)

Kosmos-1816 - Pass Details

Date: 26 June 2024
Orbit: 959 x 1007 km, 82.9° (Epoch: 23 July)

Event Time Altitude Azimuth Distance (km) Brightness Sun altitude
Rises 11:00:02 0° 180° (S) 3,759 8.8 -10.0°
Reaches altitude 10° 11:02:49 10° 172° (S) 2,796 8.1 -10.5°
Maximum altitude 11:08:45 38° 105° (ESE) 1,479 6.5 -11.5°
Drops below altitude 10° 11:14:33 10° 38° (NE) 2,736 8.2 -12.6°
Sets 11:17:14 0° 29° (NNE) 3,669 8.9 -13.0°
